Starlink 35754

operational
NORAD ID: 67054 Int'l Des: 2025-294 Owner: SPXS Country: US Constellation: starlink
LEOCIRCULAR

Über Starlink 35754

Beschreibung wird geladen...

Live-Position

3D-Globus wird geladen...

Nächste Überflüge

Höhenverlauf

Altitude vs Time

uPlot chart will show altitude changes over time

Zweizeiliger Elementsatz

1 67054C 25294AA 25346.87479167 .01017700 00000+0 14616-2 0 3464
2 67054 43.0030 182.5136 0009339 280.0836 326.2884 16.03331752 16
Epoch: 12. Dez. 2025 • Age: 56 hours

Aktueller Status

Höhe 264.6 km
Geschwindigkeit 7.75 km/s
Subsatellitenpunkt 41.36°N, 76.26°E
Startdatum 11. Dez. 2025
Alter 2 days
Typ internet

Technische Details

Klassifizierung Payload
Masse 575.00 kg
Trockenmasse 530.00 kg
Gesamtmasse 575.00 kg
Länge 0.30 m
Durchmesser 4.10 m
Spannweite 29.00 m
Form Box + pan
Hersteller SPXS
Bus-Typ Starlink V2MO
Phasenstatus In Orbit
Besitzer/Staat SPXS/US

Große Konstellationen

Loading constellations...